Regional Weather Roundup
Issued by NWS Wakefield, VA

Home | Current Version | Previous Version | Graphics & Text | Print | Product List | Glossary On
Versions: 1 2 3 4 5 6 7 8 9 10 11 12 13 14 15 16 17 18 19 20 21 22 23 24 25 26 27
000
ASUS41 KAKQ 220815
RWRAKQ

REGIONAL WEATHER ROUNDUP
NATIONAL WEATHER SERVICE WAKEFIELD VA
400 AM EDT TUE AUG 22 2017

Note: "fair" indicates few or no clouds below 12,000 feet with no
significant weather and/or obstructions to visibility. * = Denotes
station may not report precipitation (e.g., rain,snow,etc.),
thunder or fog.

VAZ042-051-052>054-056-220900-
NORTHERN VIRGINIA

CITY           SKY/WX    TMP DP  RH WIND       PRES   REMARKS
WASH NATIONAL  MOCLDY    75  74  96 SW3       30.07F
DULLES         CLEAR     72  72 100 S5        30.06F
FORT BELVOIR   CLEAR     70  69  97 CALM      30.06F
QUANTICO       CLEAR     77  75  93 SW9       30.07F
FREDERICKSBRG* CLEAR     74  74 100 CALM      30.06F
STAFFORD*      CLEAR     72  72 100 CALM      30.11F FOG
WARRENTON      FOG       66  64  91 CALM      30.06F VSB 1/2
CULPEPER*      CLEAR     67  67 100 CALM      30.08F FOG
MANASSAS*      CLEAR     69  69 100 CALM      30.06F
LEESBURG*      CLEAR     72  72 100 CALM      30.07F
WINCHESTER     CLEAR     66  64  94 CALM      30.07F FOG
FRONT ROYAL*   SUNNY     70  70 100 CALM      30.07F
LURAY*         SUNNY     68  68 100 CALM      30.09F
$$

VAZ048-049-060>072-079>083-220900-
CENTRAL AND SOUTH CENTRAL VIRGINIA

CITY           SKY/WX    TMP DP  RH WIND       PRES   REMARKS
RICHMOND       CLEAR     74  72  93 CALM      30.09F
CHESTERFIELD*  FAIR      74  71  91 CALM      30.10F
PETERSBURG*    CLEAR     72  72 100 CALM      30.10F
HANOVER        CLEAR     75  70  84 CALM      30.10F
TAPPAHANNOCK*  CLEAR     75  75 100 S5        30.09F
QUINTON*       FAIR     N/A N/A N/A SE3       30.09F
CHARLOTTSVILLE CLEAR     74  70  87 SW5       30.08F
GORDONSVILLE*  SUNNY     69  69 100 CALM      30.08F
ORANGE*        CLEAR     68  68 100 CALM      30.08F FOG
LOUISA*        CLEAR     72  70  94 S3        30.08F
BUMPASS*       FAIR      71  71 100 SW6       30.09F
FARMVILLE*     CLEAR     72  70  95 CALM      30.09F FOG
CREWE*         FAIR      73  69  87 CALM      30.09F
FORT PICKETT*  FAIR     N/A N/A N/A S7        30.10F
CHASE CITY*    FAIR      70  70  99 S3        30.11F
CLARKSVILLE*   FAIR      70  70 100 CALM      30.11S
SOUTH HILL*    CLEAR     70  70 100 SW5       30.17S
LAWRENCEVILLE* FAIR      71  71  97 CALM      30.10F
EMPORIA*         N/A     70  70 100 CALM      30.12F
$$

VAZ088>098-220900-
SOUTHEAST VIRGINIA

CITY           SKY/WX    TMP DP  RH WIND       PRES   REMARKS
NORFOLK        CLEAR     77  75  93 S7        30.10F
VIRGINIA BEACH PTCLDY    76  73  91 S7        30.10F
NORFOLK NAVAL  PTCLDY    78  74  87 SW7       30.11F
WEST POINT*    CLEAR     75  73  93 S3        30.11F
SALUDA*        FAIR      75  75 100 S5        30.08F
NEWPORT NEWS   CLEAR     77  74  90 SW8       30.10F
LANGLEY AFB    CLEAR     77  75  93 S6        30.10F
FORT EUSTIS    CLEAR     78  74  90 S6        30.08F
WILLIAMSBURG*  CLEAR     79  75  89 CALM      30.11F
HR EXEC AP*    FAIR      73  72  94 SW5       30.09F
FRANKLIN*      CLEAR     73  72  96 S5        30.12F
US460-WAKEFLD  CLEAR     74  74 100 CALM      30.10F
$$

VAZ020-022-025-037-045-220900-
WEST CENTRAL AND SOUTHWEST VIRGINIA

CITY           SKY/WX    TMP DP  RH WIND       PRES   REMARKS
STAUNTON*      CLEAR     67  65  94 CALM      30.13S
WAYNESBORO*    SUNNY     69  68  98 CALM      30.13F
HOT SPRINGS VA CLEAR     66  59  77 SW10      30.26F
LYNCHBURG      CLEAR     70  69  97 CALM      30.12F
DANVILLE       CLEAR     67  67 100 CALM      30.12F
SOUTH BOSTON*  FAIR      69  67  94 CALM      30.11F
MARTINSVILLE   FOG       66  65  97 CALM      30.16F VSB 1
ROANOKE        CLEAR     70  70 100 CALM      30.15F
BLACKSBURG     CLEAR     68  68 100 CALM      30.22S FOG
DUBLIN*        FOG       66  66 100 CALM      30.20F VSB 1/2
MARION*        PTCLDY    64  49  58 CALM      30.23F HAZE
HILLSVILLE*    CLEAR     69  64  83 CALM      30.21F
RICHLANDS*     FAIR      69  60  74 CALM      30.21S
WISE*          PTCLDY    68  66  94 SW3       30.21F
ABINGDON*      CLEAR     69  69  99 CALM      30.18S
$$

MDZ021>025-VAZ099-100-220900-
SOUTHERN MARYLAND AND THE DELMARVA PENINSULA

CITY           SKY/WX    TMP DP  RH WIND       PRES   REMARKS
PATUXENT RIVER CLEAR     77  74  90 SW9       30.07F
BAY BRIDGE APT CLEAR     79  73  83 S8        30.06F
LEONARDTOWN    PTCLDY    75  72  88 SW3       30.09F
DOVER          CLEAR     75  75 100 S7        30.05F
GEORGETOWN     PTCLDY    76  73  91 S6        30.08F
EASTON         CLEAR    N/A N/A N/A SW6       30.11F
CAMBRIDGE      CLEAR     77  75  94 S5        30.07F
SALISBURY      PTCLDY    75  75 100 S5        30.09F
OCEAN CITY     PTCLDY    79  77  94 SW8       30.10F
WALLOPS ISLAND MOCLDY    78  78 100 S9        30.10F
ACCOMACK*      CLEAR     77  76  95 S7        30.09F
$$

NCZ012>017-030>032-220900-
NORTH CENTRAL AND EASTERN NORTH CAROLINA

CITY           SKY/WX    TMP DP  RH WIND       PRES   REMARKS
ROANOKE RAPIDS FAIR      72  72 100 S5        30.11F
RALEIGH        PTCLDY    76  73  91 SW6       30.12F
ELIZABETH CITY CLEAR     76  76 100 S6        30.12F
AHOSKIE*         N/A     70  70  99 S3        30.12F FOG
EDENTON*       CLEAR     78  75  91 CALM      30.13F
CURRITUCK*     CLEAR     74  73  96 CALM      30.13F
KILL DEVIL HLS PTCLDY    78  74  87 CALM      30.12F
MANTEO         PTCLDY    79  75  89 SW6       30.14S
CAPE HATTERAS  CLEAR     75  74  96 CALM      30.14F
TARBORO*       NOT AVBL
GOLDSBORO      CLEAR     75  73  92 W1        30.13F
WASHINGTON     CLEAR     75  74  96 CALM      30.14S
GREENVILLE     CLEAR     73  73 100 SW5       30.14F
NEW BERN       CLEAR     74  74 100 CALM      30.14F
WILMINGTON     PTCLDY    76  75  97 CALM      30.12F
$$

VAZ048-220900-
ELSEWHERE

CITY           SKY/WX    TMP DP  RH WIND       PRES   REMARKS
HARRISBURG PA  PTCLDY    71  70  96 E5        30.04F
BALTIMORE      PTCLDY    71  71 100 CALM      30.05F
ANNAPOLIS      CLEAR     76  75  97 CALM      30.05F
ANDREWS AFB    CLEAR     74  71  91 SW8       30.06F
PHILADELPHIA   CLOUDY    76  73  91 S8        30.06F
HENDERSON NC   CLEAR     70  68  95 SW6       30.12F
GREENSBORO     CLEAR     72  71  97 SW3       30.13F
ROCKY MOUNT    CLEAR     71  71 100 CALM      30.12F FOG
$$

VAZ100-220900-
MARINE

STATION/POSITION TIME  TEMP    WIND        PRES    WAVE   SWELL
                       AIR SEA DIR/SP/G            HT/PER HT/PER
                 (UTC) (F)     (DEG/KT/KT) (MB)    (FT/S) (FT/S)
BRANDYWINE LGT   0736   77     220/ 14/ 16 1018.8F
CAPE MAY NJ      0736   77 78  200/  6/  9 1018.1F
LEWES DE         0736   77 77  220/  5/ 10 1018.3F
15NM E FENWICK I 0750   78 78  200/ 14/ 16 1019.4F   3/ 4   2/ 7
OCEAN-CITY-INLET 0736   78 78  220/ 10/ 12 1019.4F
WACHAPREAGUE VA  0736   79 83  230/  6/  9 1019.3F
THOMAS POINT MD  0800   78 81  210/ 12/ 14   N/A
GOOSES REEF MD   0800   80 80  210/ 12/ 14 1018.5    1/ 2
COVE POINT MD    0736   78     230/ 10/ 13 1019.0F
SOLOMONS ISLAND  0736   78 82  220/  8/ 10   N/A
BISHOPS HEAD MD  0736   81 82  210/ 12/ 15 1018.8F
PINEY POINT MD   0748          240/ 11/ 15   N/A
POTOMAC MD       0800   79 82  250/ 12/ 16 1017.6    2/ 3
CAMBRIDGE MD     0736   78 82              1019.2F
LEWISETTA VA     0736   78 82  230/ 10/ 12 1018.4F
RAPPAHANNOCK LGT 0736          190/ 15/ 16 1019.7F
STINGRAY PT      0800   80 82  240/ 12/ 14 1019.1    1/ 2
YORK RVR RNG VA  0736   80     220/ 12/ 13 1019.6F
YORKTOWN VA      0736   78 83  220/  5/  8 1019.1S
JAMESTOWN VA     0800      85  170/  2/  4   N/A
DOMINION TERM VA 0736   78     190/ 11/ 12 1019.6F
KIPTOPEKE VA     0736      81  200/  9/ 11   N/A
CHES BAY BRIDGE  0736   79 81  220/ 11/ 13 1019.3F
CAPE HENRY VA    0736   77     190/  6/  9   N/A
WILLOUBY STN VA  0736   79     210/ 12/ 14 1019.4F
S CRANEY ISL VA  0736   78     190/  6/  9 1019.5F
CAPE HENRY BUOY  0730      79                N/A     2/10
1ST LANDING BUOY 0800   79 80              1019.2    1
64NM E OF VA BCH 0750   78 79  190/  6/  6 1020.7F   2/ 8   2/ 8
DUCK PIER NC     0736   80 76  190/  7/ 10 1019.7F
44100 DUCK FRF   0735      81                N/A     2/ 8
44056 DUCK FRF   0730      81                N/A     2/10
OREGON INLET NC  0736   81 79  180/  6/  8 1020.4F
HATTERAS NC      0736   79 83   80/  2/  2 1020.6F
DIAMOND SHLS NC  0750   82 86  350/  4/  6 1020.3F   3/ 9   3/ 9
CAPE LOOKOUT NC  0800   81     240/  3/  3 1019.9F
$$




USA.gov is the U.S. government's official web portal to all federal, state and local government web resources and services.